Flag for Canada Weather past 2 weeks in MD of Lunenburg, Nova Scotia, Canada

Now
24 °F

Cold.


Feels Like: 14 °F
Forecast: 20 / 35 °F
Wind: 10 mph from North

Location: McNabs Island - AUT

Current Time: Mar 29, 2015 at 12:14:56 AM

Latest Report: Mar 28, 2015 at 11:00 PM


Visibility: N/A

Pressure: 29.63 "Hg

Humidity: 98%

Dew point: 24 °F

Location of MD of LunenburgLocation

Historic Weather in MD of Lunenburg — Graph

°F

MD of Lunenburg temperature yesterday

Maximum temperature yesterday: 37 °F (at 12:00 AM)
Minimum temperature yesterday: 24 °F (at 11:00 PM)
Average temperature yesterday: 32 °F

Past Weeks' High & Low Weather Summary

 TemperatureHumidityPressure
High45 °F (Mar 25, 5:00 PM)100% (Mar 15, 2:00 AM)30.33 "Hg (Mar 15, 2:00 AM)
Low13 °F (Mar 23, 6:00 AM)27% (Mar 25, 2:00 PM)29.00 "Hg (Mar 18, 6:00 AM)
Average28 °F80%29.79 "Hg
* Reported Mar 13 11:00 PM — Mar 28 11:00 PM, MD of Lunenburg, Weather by CustomWeather, © 2015

Note: Actual official high and low records may vary slightly from our data, if they occured in-between our weather recording intervals... More about our weather records

Advertising

MD of Lunenburg weather history for previous 24 hours

 ConditionsComfort  
Time TempWeatherWind HumidityBarometerVisibility
11:00 PM
Sat, Mar 28
24 °FCold.10 mph98%29.63 "HgN/A
10:00 PM25 °FCold.10 mph98%29.65 "HgN/A
9:00 PM26 °FChilly.9 mph99%29.61 "HgN/A
8:00 PM29 °FChilly.10 mph91%29.61 "HgN/A
7:00 PM28 °FChilly.13 mph96%29.64 "HgN/A
6:00 PM30 °FChilly.8 mph97%29.62 "HgN/A
5:00 PM30 °FChilly.10 mph98%29.64 "HgN/A
4:00 PM33 °FChilly.12 mph89%29.66 "HgN/A
3:00 PM32 °FChilly.9 mph99%29.65 "HgN/A
2:00 PM32 °FChilly.7 mph98%29.68 "HgN/A
1:00 PM32 °FChilly.9 mph98%29.73 "HgN/A
12:00 PM32 °FChilly.8 mph97%29.75 "HgN/A
11:00 AM32 °FChilly.8 mph96%29.78 "HgN/A
10:00 AM33 °FChilly.6 mph86%29.79 "HgN/A
9:00 AM34 °FChilly.7 mph81%29.79 "HgN/A
8:00 AM35 °FChilly.7 mph80%29.77 "HgN/A
7:00 AM35 °FChilly.7 mph79%29.76 "HgN/A
6:00 AM35 °FChilly.5 mph88%29.75 "HgN/A
5:00 AM35 °FChilly.5 mph87%29.74 "HgN/A
4:00 AM35 °FChilly.5 mph94%29.72 "HgN/A
3:00 AM35 °FChilly.6 mph95%29.71 "HgN/A
2:00 AM36 °FChilly.5 mph94%29.70 "HgN/A
1:00 AM36 °FChilly.5 mph95%29.67 "HgN/A
12:00 AM37 °FChilly.6 mph96%29.68 "HgN/A
Weather by CustomWeather, © 2015

See weather overviewHow to use our weather pages